Regional Weather Roundup
Issued by NWS

Home | Current Version | Previous Version | Text Only | Print | Product List | Glossary On
Versions: 1 2 3 4 5 6 7 8 9 10 11 12 13 14 15 16 17 18 19 20 21 22 23 24 25 26 27 28 29 30 31 32 33 34 35 36 37 38 39 40 41 42 43 44 45 46 47 48 49 50
000
ASHW40 PHFO 182030
RWRHI

WEATHER ROUNDUP FOR HAWAII
NATIONAL WEATHER SERVICE HONOLULU HI
1000 AM HST SAT APR 18 2015

THIS IS AN AUTOMATED REPORT THAT HAS NOT BEEN QUALITY CONTROLLED.

NOTE..."FAIR" INDICATES FEW OR NO CLOUDS BELOW 12,000 FEET WITH NO
SIGNIFICANT WEATHER AND/OR OBSTRUCTIONS TO VISIBILITY.

* - THESE SITES REPORT LIMITED FIELDS

HIZ001>004-182100-
KAUAI-NIIHAU-

CITY           SKY/WX    TMP DP  RH WIND       PRES   REMARKS
LIHUE APT      PTSUNNY   81  66  61 NE13      30.20R
PORT ALLEN*      N/A     81 N/A N/A E21G30      N/A
POIPU*           N/A     81 N/A N/A NE8G17      N/A
PRINCEVILLE*     N/A     77 N/A N/A MISG        N/A
KOKOLE POINT*  NOT AVBL
MOLOAA DAIRY*  NOT AVBL
WAIMEA HTS*    NOT AVBL
PUU OPAE*      NOT AVBL
PUU LUA*       NOT AVBL
MAKAHA RIDGE*    N/A     75  59  57 NW3         N/A
$$

HIZ005>011-182100-
OAHU-

CITY           SKY/WX    TMP DP  RH WIND       PRES   REMARKS
HONOLULU       MOSUNNY   80  65  59 E18       30.15R
KALAELOA       PTSUNNY   82  64  54 NE10G21   30.15R
KANEOHE MCB    CLOUDY    78  65  63 E15G22    30.15R
WHEELER FIELD    N/A    N/A N/A N/A MISG        N/A
BELLOWS*         N/A    N/A N/A N/A NE20G25     N/A
KAHUKU*          N/A    N/A N/A N/A E10G21      N/A
WHEELER*       NOT AVBL
WAIANAE HARBOR NOT AVBL
DILLINGHAM*      N/A     63  48  59 MISG        N/A
KAHUKU TRN*      N/A    N/A N/A N/A E10G24      N/A
KAWAILOA*        N/A     72  63  73 E12G25      N/A
KII*             N/A     75  66  73 E17G26      N/A
MAKUA RANGE*     N/A     82  63  51 E9G21       N/A
OAHU FOREST NW NOT AVBL
SCHOFIELD BRK*   N/A     61  50  67 MISG        N/A
SCHOFIELD S*   NOT AVBL
WAIANAE VLY*   NOT AVBL
KUAOKALA*      NOT AVBL
HONOULIUULI*   NOT AVBL
MOKUOLOE IS*   NOT AVBL
PALEHUA*       NOT AVBL
WAIAWA PHB*    NOT AVBL
$$

HIZ012>013-182100-
MOLOKAI-

CITY           SKY/WX    TMP DP  RH WIND       PRES   REMARKS
MOLOKAI AIRPT  MOSUNNY   78  65  63 NE21G30   30.13S
KALAUPAPA      NOT AVBL
MAKAPULAPAI*   NOT AVBL
MOLOKAI 1*     NOT AVBL
PUU ALII*        N/A     60  59  96 E2G12       N/A
$$

HIZ016-182100-
KAHOOLAWE-

CITY           SKY/WX    TMP DP  RH WIND       PRES   REMARKS
KAHOOLAWE*     NOT AVBL
HAKIOAWA*        N/A     79  64  59 MISG      30.56S
HONOKANAIA*      N/A     82  62  49 NE17G38   30.14S
KANELOA*         N/A     79  66  65 MISG      29.35R
KEALIALALO*      N/A     79  63  57 E22G40    30.13S
LUA MAKIKA*    NOT AVBL
$$

HIZ014>015-182100-
LANAI-

CITY           SKY/WX    TMP DP  RH WIND       PRES   REMARKS
LANAI CITY     PTSUNNY   77  64  65 N16       30.17F
LANAI 1*       NOT AVBL
$$

HIZ017>028-182100-
MAUI-

CITY           SKY/WX    TMP DP  RH WIND       PRES   REMARKS
KAHULUI        MOSUNNY   81  63  54 NE16G30   30.14S
KAPALUA-W MAUI MOSUNNY   79  63  57 E20G32    30.13
HANA AIRPORT   MOSUNNY   81  63  54 E12       30.21S
HANA*            N/A     79 N/A N/A E12G17      N/A
HALEAKALA SUMM   N/A     52  10  19 NE13G25     N/A
MAALAEA BAY*   NOT AVBL
HALEAKALA*     NOT AVBL
KAUPO GAP*     NOT AVBL
KULA 1*        NOT AVBL
$$

HIZ023>026-182100-
BIG ISLAND OF HAWAII COAST AND LOWER SLOPES-

CITY           SKY/WX    TMP DP  RH WIND       PRES   REMARKS
KAILUA KONA    MOSUNNY   81  67  62 SW6       30.09R
HILO           PTSUNNY   79  63  57 N7        30.17R
HONOKAA*       NOT AVBL
KAWAIHAE MWT*    N/A     81 N/A N/A W8          N/A
KAWAIHAE*        N/A     81 N/A N/A W8          N/A
SOUTH POINT*     N/A     77 N/A N/A NE25G36     N/A
UPOLU AIRPORT*   N/A    N/A N/A N/A E20G30      N/A
KAMUELA*       CLEAR     73  59  60 NE29      30.22R
HAKALAU*         N/A     58  44  59 SE6         N/A
KALOKO-HONOKO*   N/A     82  68  61 SW8       30.09R
PALI 2*          N/A     72  52  49 N21G30      N/A
KEALAKOMO*       N/A     72  46  40 NE18G31     N/A
KAUPULEHU*     NOT AVBL
KAPAPALA*        N/A     81  45  27 NE5G16      N/A
LOWER KAHUKU*    N/A     70  54  56 E3G16       N/A
PUHE CS*         N/A     82  64  54 W6G12       N/A
PUHO CS*         N/A     79  64  60 W2          N/A
PTA KEAMUKU*     N/A     72  54  53 CALM        N/A
WAIKOLOA*      NOT AVBL
$$

HIZ027>028-182100-
BIG ISLAND OF HAWAII INTERIOR AND SUMMMITS-

CITY           SKY/WX    TMP DP  RH WIND       PRES   REMARKS
BRADSHAW FIELD MOSUNNY   65  34  31 S6G17     30.40R
MK VISITOR CEN NOT AVBL
MAUNA KEA*       N/A     39  -9  12 SE16        N/A
MAUNA LOA*       N/A     50   7  17 MISG        N/A
MAUNA LOA 1*   NOT AVBL
PTA KIPUKA*      N/A    N/A N/A N/A N6G12       N/A
PTA RANGE 17*    N/A    N/A N/A N/A E9G15       N/A
PTA WEST*      NOT AVBL
NENE CABIN*      N/A     55  41  58 E8G15       N/A
AHUMOA*        NOT AVBL
PTA PORTABLE*  NOT AVBL
PUU MALI*        N/A     61  36  39 NW8G16      N/A
$$

HIC003-182100-
NORTHWEST ISLANDS-

CITY           SKY/WX    TMP DP  RH WIND       PRES   REMARKS
MIDWAY ISLAND  SUNNY     75  64  69 CALM      30.23R
MIDWAY NOS*    NOT AVBL
FRENCH FRIGATE NOT AVBL
$$

PHZ110>124-180-182100-
BUOY REPORTS

STATION/POSITION TIME  TEMP    WIND        PRES    WAVE   SWELL
                       AIR SEA DIR/SP/G            HT/PER HT/DIR
                 (UTC) (F)     (DEG/KT/KT) (MB)    (FT/S) (FT/D)
BUOY 51001       NOT AVBL
BUOY 51101       2000   74 73   80/ 10/ 14 1022.9R   5/10
BUOY 51100       2000   74     110/ 16       N/A
BUOY 51002       2000   78 78   70/ 21/ 27 1017.7R  10/ 8   5/ 40
BUOY 51003       2000   78 79   80/ 17/ 19 1019.5R   8/ 8   5
BUOY 51004       1859   76 77   60/ 19/ 25 1018.2R  10/ 9   7/ 70
BARBERS PT BUOY  NOT AVBL
WAIMEA BAY BUOY  2000      76                N/A     5/ 8
KAILUA BAY BUOY  2000      77                N/A     7/ 7   2/ 40
LANAI BUOY       2000      78                N/A     3/13   2/190
BARBERS PT 2     2000      78                N/A     5/11   3/310
PAUWELA MAUI     2000      76                N/A     8/ 8   3/340
HILO             2000      77                N/A     8/10   3/ 70
KANEOHE BAY BUOY 2000      76                N/A     6/ 7   2
HANALEI KAUAI    2000      76                N/A     7/ 9
KAHULUI HARBOR   2000   77 77   50/ 16/ 23 1020.7R
HONOLULU HARBOR  2000   79 77   90/  3/  8 1021.0R
KILO NALU        NOT AVBL
HILO HARBOR      2000   76 77  350/  4/  5 1021.4R
MOKUOLOE         2000   77 77   90/ 14/ 21 1021.5S
NAWILIWILI       2000   76      50/ 12/ 16 1022.1R
WHOTS BUOY       NOT AVBL
BUOY 51028       NOT AVBL
$$

......................KEY........................................
  SKY/WX - SKY CONDITIONS/PRESENT WEATHER
  TMP    - TEMPERATURE IN FAHRENHEIT
  DWPT   - DEWPOINT IN FAHRENHEIT
  RH     - RELATIVE HUMIDITY IN PERCENT
  WIND   - DIRECTION AND SPEED /MPH FOR ISLANDS...KTS FOR BUOYS/
  PRES   - MEAN SEA LEVEL PRESSURE IN INCHES OF HG
  VSB    - VISIBILITY IN MILES
  HX     - HEAT INDEX
  WCI    - WIND CHILL INDEX
  VRB    - VARIABLE WIND DIRECTION
  N/A    - NOT AVAILABLE



USA.gov is the U.S. government's official web portal to all federal, state and local government web resources and services.